Location: Clanezzo
(45.7500°N, 9.6000°E)
Time: 14:08:50
(UTC+00:00)

Meteor 1-26 Rocket - Pass Details

Date: 12 May 2021
Orbit: 807 x 928 km, 81.3° (Epoch: 19 June)

Event Time Altitude Azimuth Distance (km) Brightness Sun altitude
Rises 19:32:12 0° 177° (S) 3,449 7.0 -8.1°
Reaches altitude 10° 19:34:41 10° 174° (S) 2,497 6.3 -8.4°
Maximum altitude 19:40:14 59° 96° (E) 969 4.3 -9.2°
Drops below altitude 10° 19:45:38 10° 18° (NNE) 2,440 6.9 -9.9°
Sets 19:48:03 0° 15° (NNE) 3,364 7.7 -10.2°
